Theta_e
342 343 342 342 340 343 348 347 345 346 346 343 340 339 336 336 331 329 329 333 334 341 342 341 348 355 357 359 360 360 360 358 357 360 361 360 361 352 344 345 344 344 344 344 343 344 344 344 344 346 347 347 347 349 348 349 351 352 351 352 353 354 354 354 355 355 356 356 357 358 360 361 363 365
345 344 343 342 341 342 343 345 346 346 344 342 340 337 338 340 335 332 328 330 338 339 344 345 345 352 356 357 358 360 361 356 362 361 359 360 362 348 345 345 345 344 343 342 341 342 342 343 343 342 342 344 345 347 347 347 347 348 349 350 351 351 351 351 352 353 354 355 356 356 357 358 359 360
342 343 343 341 339 340 340 342 345 344 344 341 339 338 339 338 335 339 341 332 338 342 339 343 347 349 354 357 357 358 358 357 357 359 359 363 354 349 354 343 343 343 342 341 340 339 338 340 341 340 340 341 342 344 345 345 345 346 347 347 348 348 348 349 350 351 352 352 353 353 354 354 356 357
338 338 338 340 338 339 342 341 344 342 344 344 340 339 339 338 346 347 344 338 334 341 341 343 346 349 352 357 356 357 356 357 355 360 361 364 355 363 364 347 342 342 341 341 340 338 337 338 339 339 340 340 341 343 342 341 342 343 344 344 345 345 346 345 346 348 349 350 350 350 351 351 352 354
338 336 336 337 339 342 342 342 342 343 343 345 343 341 341 340 342 344 343 337 334 339 344 343 342 345 352 352 356 356 356 357 360 357 362 363 362 363 364 366 346 342 340 339 338 338 337 337 337 338 339 339 341 342 343 341 340 341 340 341 341 341 343 342 342 344 346 346 347 348 348 349 349 351
334 335 334 335 337 340 340 341 338 339 342 344 343 337 337 338 337 338 341 336 336 336 342 343 345 343 349 349 355 353 354 354 357 360 362 361 363 364 366 363 362 344 340 337 335 336 336 336 336 336 337 338 339 339 340 340 338 338 337 337 338 338 337 337 338 341 342 343 345 346 346 346 347 349
337 337 337 338 335 336 337 338 338 339 340 343 341 339 339 339 339 338 341 338 336 336 337 341 339 342 346 347 349 353 355 356 358 359 360 359 362 367 366 360 359 344 340 337 336 335 335 336 336 336 336 336 335 336 336 335 336 336 336 335 336 336 336 335 336 338 339 341 343 345 344 345 345 346
333 333 332 335 338 337 332 334 337 341 338 341 342 340 337 339 336 338 344 342 340 339 336 340 341 343 342 347 350 351 353 354 354 357 359 361 365 364 363 361 362 349 338 337 336 335 335 335 335 334 334 334 333 333 333 333 333 332 332 332 333 333 332 332 333 336 335 337 339 342 343 344 343 341
332 334 333 334 335 338 336 333 334 338 339 342 341 339 338 338 340 340 342 340 343 342 340 340 343 345 345 346 350 352 350 351 354 359 358 360 360 360 359 358 358 348 337 337 335 335 334 334 334 334 334 333 332 331 331 330 330 330 329 329 330 330 330 330 328 330 331 332 334 334 336 339 342 342
331 333 333 333 334 334 333 334 334 335 337 341 343 341 340 339 340 339 338 342 342 341 341 342 342 345 343 345 347 350 352 350 349 350 353 357 359 357 357 358 358 361 362 360 356 339 338 335 334 334 334 333 332 330 329 328 327 326 325 323 323 325 327 327 329 328 328 329 331 332 333 336 338 340
330 331 331 331 331 330 331 331 331 332 335 338 341 342 340 340 339 337 336 341 340 340 339 340 340 342 345 345 345 349 352 351 348 346 346 348 354 357 358 356 358 359 358 354 347 350 349 345 344 334 331 332 331 330 328 326 323 323 321 320 319 320 320 322 324 326 326 327 327 327 328 330 335 337
329 329 329 328 328 329 329 329 331 332 332 338 343 341 341 338 340 338 337 339 339 339 338 338 338 341 342 342 346 348 350 348 349 348 346 346 348 352 356 355 354 354 354 357 355 347 346 343 342 334 331 331 331 330 329 328 328 324 322 320 322 322 320 320 321 322 322 322 323 323 324 325 329 333
328 328 327 326 327 328 322 321 322 323 322 332 334 338 341 341 337 335 334 336 338 338 338 339 340 339 340 339 342 342 342 344 340 347 349 345 349 350 352 355 357 354 351 351 352 355 355 354 357 361 359 356 339 337 333 340 333 328 322 322 324 324 322 320 320 321 321 321 320 320 321 323 326 329
326 326 326 326 324 320 321 322 321 319 319 319 327 337 340 341 337 338 335 334 338 339 335 336 339 338 335 337 340 341 343 346 348 347 346 345 347 351 352 350 350 351 349 351 357 358 363 360 358 359 359 361 357 358 352 353 349 338 328 326 325 325 324 321 320 319 319 319 319 318 317 320 323 325
323 323 324 324 324 324 323 325 320 321 319 319 318 318 320 326 337 337 337 335 341 339 338 336 336 335 335 338 342 344 343 346 346 345 347 348 348 347 342 337 344 355 355 355 355 357 360 362 358 356 356 361 363 360 358 345 340 336 330 328 327 326 325 324 322 321 318 317 317 317 316 318 320 322
322 322 322 324 325 324 325 325 325 323 320 318 317 316 316 318 319 322 333 335 340 342 337 337 336 337 335 338 342 341 342 343 345 347 347 351 348 345 341 342 343 353 361 356 353 352 362 364 360 359 361 361 362 361 347 337 338 335 329 328 328 327 326 325 325 325 322 319 319 320 320 320 322 322
323 323 322 322 323 324 320 324 325 324 324 319 316 315 315 315 316 319 321 322 336 343 340 336 338 340 340 339 342 340 343 347 344 345 345 348 348 345 341 343 346 354 360 351 353 348 354 361 357 355 359 360 360 358 339 334 336 333 332 331 330 328 326 324 324 324 323 321 320 320 321 320 320 320
325 324 323 321 321 324 324 325 324 323 322 322 323 326 327 328 326 318 317 319 319 328 339 338 336 339 345 340 342 347 348 344 344 345 345 349 346 343 340 347 347 352 355 349 348 349 348 355 354 352 356 358 359 360 348 332 333 332 329 328 326 325 324 323 323 323 323 322 320 319 318 317 317 318
327 325 324 324 323 324 324 324 322 321 320 320 321 323 325 326 328 333 337 335 335 335 337 338 340 342 343 342 344 349 350 349 350 351 350 349 346 349 348 348 351 355 361 356 352 344 347 356 351 351 353 356 356 358 336 332 332 331 327 326 326 324 323 323 323 322 321 321 319 318 316 315 314 314
329 328 327 325 325 324 324 320 315 315 318 318 320 322 323 324 326 329 327 330 331 336 340 340 341 341 341 333 346 351 350 347 350 350 353 353 353 352 348 347 346 346 349 355 350 344 344 353 350 350 353 354 353 353 356 331 331 327 325 326 325 323 321 321 321 321 320 320 319 317 314 312 311 310
330 328 328 326 326 325 324 320 314 313 311 319 320 321 322 323 325 327 334 327 322 323 322 323 326 327 327 325 324 326 323 335 345 347 343 343 346 341 336 336 340 342 346 353 348 346 342 350 351 348 351 354 352 352 353 357 329 325 323 323 322 320 319 319 319 319 320 320 319 318 316 311 310 311
331 330 328 328 327 325 326 318 313 312 313 317 318 320 320 320 322 328 333 338 337 321 320 322 323 324 326 326 323 324 326 326 331 347 340 343 342 339 338 338 338 339 343 347 350 346 343 351 352 348 350 353 351 350 352 353 339 323 319 320 320 317 318 317 317 318 318 319 318 316 313 309 310 324
331 330 329 325 322 322 321 312 312 311 310 316 319 320 320 319 319 325 334 336 338 338 336 336 335 334 329 336 341 341 324 326 332 345 343 343 341 339 341 338 340 336 338 347 353 344 345 347 350 349 346 344 349 352 352 351 349 346 346 339 334 317 319 317 314 313 314 316 315 315 310 308 316 341
330 331 330 328 319 314 312 310 309 308 306 312 318 321 319 317 317 321 325 335 340 341 338 339 339 339 341 341 341 343 342 339 346 341 344 343 340 339 340 343 341 337 340 347 350 345 344 347 348 351 346 341 340 348 349 350 350 348 349 347 344 320 319 316 314 310 312 312 312 312 309 309 317 347
329 330 331 331 321 314 311 309 307 305 305 307 317 322 319 317 318 317 323 329 327 339 341 339 340 339 340 340 340 340 344 341 342 342 342 343 343 341 339 339 339 339 341 355 339 349 344 347 346 350 346 345 343 346 347 348 347 346 348 349 347 341 340 340 336 334 310 308 308 307 307 311 312 333
329 330 331 331 324 314 311 308 305 303 305 307 320 321 308 309 314 323 333 335 338 338 338 340 339 340 339 340 339 337 340 341 341 342 342 342 344 344 342 340 344 337 343 356 333 351 346 345 346 346 347 344 340 344 343 343 344 344 346 348 348 346 344 343 342 341 338 335 329 317 319 310 314 313
330 332 332 331 319 312 307 303 303 304 306 310 319 306 308 311 315 321 326 331 336 336 338 341 339 339 340 338 337 337 337 339 342 341 342 344 344 345 344 347 349 348 350 353 349 353 351 346 351 348 345 346 341 340 342 340 341 345 343 345 348 347 346 345 342 341 339 338 335 309 309 308 310 312
330 332 332 328 312 305 301 302 304 306 310 318 308 308 311 314 318 324 324 324 327 332 336 339 339 340 341 342 341 340 342 343 345 346 345 345 345 346 348 350 352 353 349 352 351 352 351 349 348 349 349 344 340 338 337 342 342 342 340 344 345 345 345 345 344 341 339 339 334 330 331 329 327 329
331 322 311 306 305 306 305 306 310 315 316 314 312 312 314 318 325 324 323 322 322 320 320 324 331 338 341 342 344 348 346 347 348 348 345 345 348 345 346 346 352 351 347 347 351 354 356 351 349 350 349 345 340 340 340 337 340 340 340 340 338 341 343 344 344 341 339 340 338 335 334 335 332 332
315 312 310 308 310 314 319 326 328 327 327 317 317 318 320 327 325 324 323 323 321 319 320 322 322 323 327 334 340 343 347 347 347 345 343 342 342 343 343 346 343 343 345 346 348 351 354 356 351 349 346 347 345 342 342 338 339 340 341 340 342 342 341 343 342 341 339 338 338 337 339 339 337 334
325 324 325 328 318 315 315 318 320 321 323 327 327 328 327 327 327 326 324 324 323 323 321 321 323 325 328 329 330 336 341 340 343 342 341 340 340 340 340 338 334 335 342 346 347 353 352 353 350 348 346 345 347 346 344 346 344 339 339 341 339 336 339 342 343 342 342 341 340 339 339 337 334 335
323 323 321 325 334 334 329 330 330 328 327 327 327 328 328 327 327 328 325 324 325 325 326 325 324 324 325 325 328 329 329 331 336 342 341 339 338 338 337 334 333 335 335 340 343 345 347 347 345 345 349 348 346 348 349 342 343 342 342 341 340 341 341 340 341 342 343 341 339 338 339 337 335 335
320 327 325 325 324 324 323 324 324 326 328 326 327 326 327 327 326 326 325 323 323 325 325 324 323 323 323 324 327 328 329 329 332 339 340 338 339 338 337 333 333 332 332 334 337 339 341 343 345 346 345 345 344 345 345 340 344 342 340 342 341 342 342 342 340 341 342 341 339 338 338 340 341 340
318 325 323 322 320 320 320 319 320 321 324 324 324 325 321 326 326 325 325 325 325 325 324 324 323 323 323 323 325 325 325 326 328 329 329 334 335 332 330 329 329 333 334 334 336 337 339 340 344 343 343 342 341 341 343 342 339 333 335 339 341 341 341 341 343 342 342 341 340 338 338 338 341 343
323 320 320 319 318 317 316 316 316 317 318 318 320 320 322 323 321 322 324 324 325 324 324 323 324 324 323 322 323 323 324 324 324 326 328 330 329 327 327 326 325 325 327 328 329 334 340 340 337 335 335 335 332 332 329 333 337 334 339 342 340 339 339 341 340 341 341 342 342 340 339 340 339 342
318 317 317 316 314 314 313 314 313 313 313 315 315 315 315 315 315 315 316 320 326 324 324 324 323 323 324 324 322 322 322 322 324 324 324 325 324 324 324 324 324 325 326 325 325 328 330 334 334 331 329 328 328 328 329 325 327 340 335 335 338 337 339 339 341 340 340 339 341 341 338 337 339 341
314 313 313 312 313 312 311 311 311 311 311 312 312 312 312 312 313 312 313 317 319 320 321 324 324 325 325 324 323 322 322 322 322 323 323 324 324 324 323 323 323 324 325 326 328 328 328 325 327 331 329 327 326 325 325 330 321 319 337 337 334 336 336 336 337 337 340 341 341 341 339 337 338 342
312 311 309 309 309 310 309 309 309 308 309 311 310 310 310 310 312 314 314 315 314 315 316 321 324 324 325 324 324 324 324 324 323 323 324 325 324 324 323 322 322 323 323 324 325 326 327 326 323 323 326 325 323 322 322 325 329 324 311 332 336 335 336 334 333 334 337 340 339 340 340 339 335 340
313 310 309 308 308 307 307 307 307 306 307 308 309 309 309 309 309 311 311 311 313 313 314 317 319 319 320 323 323 324 323 322 322 322 323 324 325 323 322 322 321 323 323 321 324 325 326 324 323 323 324 323 322 323 325 323 322 329 318 307 329 335 335 334 333 334 334 334 338 336 338 340 332 323
310 308 307 306 305 305 305 306 306 306 305 306 308 309 309 308 308 308 309 310 312 313 313 314 316 315 317 319 321 324 324 323 322 323 323 323 323 323 321 321 322 324 324 323 322 323 324 323 323 325 324 325 326 328 328 326 326 331 331 318 305 322 334 335 331 331 330 334 335 333 333 337 334 336
304 303 302 302 302 302 302 302 302 304 304 304 306 305 309 309 308 307 308 309 312 312 312 312 313 315 317 318 319 321 322 322 323 323 324 323 322 322 320 319 321 323 322 321 322 322 323 325 326 322 327 327 329 333 331 326 322 323 324 328 311 305 307 314 332 334 332 335 335 331 332 331 331 333
301 301 301 301 299 299 299 299 299 300 301 302 302 303 305 307 307 305 307 308 310 311 312 312 312 313 315 317 318 319 320 321 322 323 323 323 323 322 322 322 322 322 323 321 322 323 327 330 330 328 329 329 327 324 319 321 322 322 323 326 331 315 309 308 308 314 330 334 332 331 329 330 329 328
300 299 298 299 299 298 297 297 297 297 297 298 300 301 302 303 304 304 304 305 306 308 309 310 312 312 313 315 316 316 317 318 321 322 323 323 324 324 323 324 324 324 324 324 326 327 327 328 329 329 328 328 325 326 322 321 324 323 323 325 326 332 331 316 309 309 310 309 312 321 329 329 324 320
300 299 299 298 298 297 297 297 296 296 297 297 297 299 299 299 300 301 301 302 302 304 306 308 309 310 311 312 313 314 314 316 319 318 320 324 323 323 323 325 325 325 325 326 325 327 329 330 328 327 325 324 325 326 323 324 323 324 324 323 327 329 329 331 328 320 318 316 310 309 311 310 311 313
300 300 301 300 299 299 298 298 297 297 296 295 295 296 297 298 298 299 299 300 300 302 304 305 306 308 309 311 311 310 312 310 314 317 316 318 322 323 322 323 324 324 324 326 324 324 325 326 327 327 324 325 325 325 326 325 324 323 323 324 323 326 328 326 326 324 323 322 312 307 309 311 313 310
Wind_Speed
12 11 13 11 9 14 13 11 9 11 11 10 10 11 11 8 9 9 11 14 12 10 10 11 11 13 12 11 11 11 12 13 13 12 12 13 12 13 18 19 19 19 20 20 21 21 21 20 20 20 20 20 20 19 19 19 18 18 18 17 17 17 17 16 16 16 16 16 17 18 18 18 18 18
10 10 11 11 11 13 14 15 12 11 11 9 9 10 10 11 12 13 14 14 10 8 7 9 11 12 12 12 11 10 11 11 13 12 13 13 12 14 15 18 18 18 19 19 20 20 20 20 20 20 19 19 19 19 19 18 18 18 18 18 18 17 17 17 17 17 17 17 17 17 17 17 17 17
10 11 13 13 13 13 15 16 13 12 9 9 10 9 12 15 18 17 12 15 12 10 9 9 14 11 11 11 11 10 10 10 13 12 13 12 13 10 11 15 16 17 17 19 19 20 20 20 19 19 18 18 18 19 18 18 18 18 18 18 18 17 17 17 17 17 17 17 17 17 17 18 18 18
12 13 14 14 13 13 12 15 15 14 11 11 13 11 11 17 15 13 13 16 16 9 9 9 9 14 10 10 11 11 9 10 13 11 12 11 10 9 10 14 16 16 18 18 18 18 19 19 19 18 18 17 17 18 17 18 18 18 18 18 17 17 17 17 17 17 17 17 17 17 17 17 18 17
14 14 15 15 16 15 15 14 14 13 12 10 11 11 9 11 12 14 14 15 14 9 10 11 11 12 11 11 11 11 10 10 9 11 10 10 10 10 9 9 15 17 16 17 17 17 17 17 17 18 17 17 17 17 17 17 17 17 17 17 17 17 16 16 16 16 16 17 17 17 17 17 17 17
14 15 17 17 17 16 17 16 16 16 12 11 12 11 13 13 14 16 14 14 12 15 11 11 12 14 13 11 10 11 11 11 10 10 9 8 10 9 8 8 8 16 17 16 17 16 17 16 17 17 17 17 17 17 17 17 17 16 16 17 16 16 16 16 16 16 17 17 17 17 17 18 17 17
13 14 15 16 18 15 16 16 15 15 17 12 12 12 12 14 15 17 15 13 15 16 14 13 14 13 13 14 12 13 11 10 10 11 11 10 10 7 7 7 6 13 17 17 16 16 15 15 16 16 16 16 16 16 16 16 16 16 16 16 16 17 16 16 16 16 17 17 17 17 18 18 18 17
14 15 16 16 16 16 18 17 15 14 15 13 11 13 13 11 16 17 11 13 14 14 15 13 13 12 12 12 12 11 10 11 11 11 10 11 9 8 7 7 7 10 16 15 16 15 14 15 15 15 16 16 16 17 17 17 16 16 17 16 16 16 16 16 16 16 16 16 17 17 18 18 18 17
15 16 16 17 16 16 15 17 18 15 16 14 13 11 11 13 14 15 13 14 14 13 14 13 12 11 12 11 10 10 11 11 11 10 11 11 10 9 9 9 9 8 14 15 15 15 15 15 15 16 16 17 17 17 17 16 16 16 16 16 16 15 15 15 15 15 15 15 16 16 17 17 17 17
15 15 16 16 17 16 16 15 18 17 17 16 15 14 12 13 13 16 18 14 13 13 14 12 11 11 12 12 11 12 11 11 11 10 11 11 10 10 11 10 8 6 5 7 8 10 12 15 17 17 16 17 17 16 16 16 16 15 15 15 15 15 15 14 14 14 14 14 15 16 16 17 17 17
15 15 15 16 17 18 16 17 19 18 18 15 17 15 14 15 15 14 18 15 13 12 13 13 14 13 13 12 12 11 12 12 12 10 8 11 12 10 10 9 5 5 10 14 13 13 13 15 14 15 17 16 16 15 14 14 15 15 15 15 15 14 14 14 14 14 14 15 15 16 16 16 17 16
14 15 15 16 16 16 15 16 19 19 16 13 13 13 11 14 14 14 14 15 13 12 12 12 13 13 12 12 12 10 10 11 11 10 9 10 12 9 8 10 7 5 8 11 11 11 11 10 14 15 17 17 16 15 14 15 15 16 16 15 15 14 15 15 15 15 15 16 16 16 16 15 15 15
14 14 13 14 15 16 18 19 17 18 16 13 13 12 11 11 11 13 15 14 13 13 13 12 11 13 13 14 13 13 13 12 12 10 11 11 9 8 10 9 7 6 10 11 12 12 13 12 11 9 9 10 15 14 16 13 16 17 15 15 15 15 15 15 15 14 15 15 15 15 15 14 14 14
14 14 14 14 18 18 16 16 18 18 17 16 14 14 12 11 13 11 12 14 13 13 15 15 14 13 13 13 14 14 13 12 11 11 11 14 11 9 8 4 6 11 13 14 11 10 9 10 10 10 10 9 12 9 10 11 12 14 17 16 16 16 16 15 14 15 14 14 14 14 14 13 13 13
15 13 13 11 14 15 15 16 16 12 13 15 15 18 20 19 15 14 14 16 14 13 13 14 14 16 16 15 15 14 14 13 13 13 12 12 10 10 9 9 7 11 15 14 10 9 10 10 10 11 11 10 9 9 9 12 15 13 15 17 16 16 15 14 14 14 13 13 13 13 13 13 13 13
11 11 11 10 9 11 12 13 14 15 16 14 14 15 16 19 23 22 16 15 14 14 13 12 14 14 16 15 15 14 14 13 13 13 13 12 11 11 10 10 11 11 14 9 11 10 8 9 10 9 9 8 8 8 6 12 14 13 12 14 15 15 15 14 13 12 12 12 12 12 13 13 13 13
9 8 10 10 9 9 15 13 13 15 17 19 18 16 15 18 21 22 26 26 20 13 13 14 13 14 15 16 13 14 15 12 13 13 13 12 10 10 11 11 9 7 9 13 11 10 8 9 10 9 8 8 7 7 9 11 12 12 12 12 13 13 13 12 12 12 12 11 12 12 12 12 12 13
8 8 8 9 11 11 13 12 14 16 17 18 19 18 17 14 15 20 25 25 26 23 18 16 17 16 14 15 15 15 13 15 15 14 13 11 11 9 11 12 11 12 14 12 11 9 11 12 9 9 8 8 7 7 9 15 13 11 11 11 12 11 11 11 11 11 11 11 11 12 12 12 12 12
8 9 8 8 10 11 13 13 14 13 18 18 18 19 19 18 17 17 19 20 19 16 19 22 17 16 17 17 15 12 11 12 13 12 12 12 11 11 13 15 15 10 9 12 10 10 9 9 10 9 8 8 8 7 10 13 12 11 10 11 11 11 11 10 10 10 11 11 11 12 11 11 11 11
9 9 9 9 9 10 12 14 15 15 15 17 18 19 19 19 18 17 20 20 22 23 22 21 21 20 20 16 15 11 10 14 14 10 8 3 4 4 5 7 7 10 11 13 11 9 9 9 10 9 8 7 7 7 6 14 14 11 11 11 11 11 10 9 10 10 9 10 10 11 11 10 10 10
10 11 12 11 11 11 13 16 13 17 16 16 18 17 19 18 18 17 17 21 22 22 24 24 25 24 22 18 16 14 2 12 12 12 11 9 8 6 8 10 12 12 11 10 14 10 9 9 9 8 8 8 8 7 7 6 11 13 11 10 10 9 9 9 9 8 8 9 9 9 9 9 9 8
8 12 15 14 11 13 13 17 18 17 16 14 15 16 18 20 18 16 16 15 15 23 24 24 24 22 21 18 13 13 17 22 17 13 13 11 11 12 13 12 13 12 12 12 13 11 10 9 9 8 7 7 7 8 7 7 7 8 8 8 8 7 8 8 7 8 8 8 8 8 8 9 9 6
8 10 10 15 12 11 14 18 20 19 15 13 14 15 17 19 19 16 16 17 17 15 15 16 17 17 18 15 12 11 20 20 17 16 14 12 11 11 9 9 11 11 12 12 15 11 10 10 10 9 7 8 8 8 8 9 8 7 7 6 5 6 6 6 5 7 7 8 8 8 10 11 11 7
9 9 11 12 11 12 16 17 19 19 18 13 14 12 15 17 20 18 16 16 11 12 16 18 19 20 18 19 17 13 12 15 18 19 16 14 13 13 12 10 8 10 8 9 15 12 10 10 9 11 9 8 7 8 8 7 6 8 9 8 7 6 5 5 4 5 5 6 8 9 11 13 12 7
9 8 9 12 12 13 15 17 19 19 18 17 13 13 13 16 21 22 12 14 15 12 13 14 15 16 15 17 18 18 13 15 18 19 17 15 14 14 13 13 12 13 12 3 13 11 10 9 10 10 9 8 6 7 8 7 7 7 9 9 9 8 7 6 6 5 6 5 6 8 10 13 16 8
9 9 9 9 13 14 15 16 18 20 18 19 12 14 21 24 26 18 7 10 11 12 8 9 11 13 14 14 16 18 17 13 15 17 18 16 15 14 13 12 9 9 12 10 17 11 9 9 10 10 9 8 8 7 8 8 8 8 9 10 9 9 9 8 8 7 6 5 5 6 8 11 11 7
9 8 9 10 11 13 16 16 17 18 20 15 11 18 20 23 24 18 13 8 9 9 10 10 11 13 14 13 13 15 15 17 17 18 17 16 15 13 12 9 7 10 2 4 12 10 8 7 8 9 9 8 8 8 8 7 8 8 8 10 9 9 9 9 9 8 8 8 5 7 5 4 6 6
8 8 9 9 14 15 15 14 15 15 17 14 18 17 19 21 18 14 14 10 9 6 11 10 10 9 12 13 11 11 12 12 13 12 12 12 11 11 8 6 4 1 5 6 10 11 8 8 7 8 8 7 7 8 8 7 7 10 9 10 9 9 8 9 8 7 8 7 6 5 5 6 5 5
8 9 14 16 14 13 13 13 13 10 12 16 17 17 18 17 12 14 13 12 10 11 10 8 5 7 9 11 11 10 11 12 11 9 8 9 7 7 5 10 6 5 4 3 3 7 6 7 8 7 6 6 8 8 8 8 8 9 10 10 10 9 7 7 8 8 8 8 7 7 7 7 7 7
15 15 14 14 13 10 9 7 6 7 9 13 14 15 16 11 11 11 11 11 10 10 10 9 9 9 8 5 7 12 12 10 9 11 10 9 8 8 8 5 4 4 3 4 5 6 6 4 4 6 6 5 7 7 5 4 6 9 11 12 9 8 8 8 9 8 8 8 7 7 7 7 8 8
6 10 9 7 8 8 10 9 7 8 9 9 9 7 8 9 10 11 11 11 10 10 9 9 8 7 7 9 10 2 5 8 8 10 9 10 9 8 7 6 4 7 5 4 6 2 3 2 6 7 6 6 6 6 6 3 2 7 10 11 10 9 9 9 8 9 8 8 8 7 7 6 6 7
9 9 9 8 5 3 5 6 5 6 6 7 8 7 8 8 9 11 12 11 10 9 9 8 8 9 10 12 8 8 8 4 3 7 9 9 6 6 7 6 6 5 4 4 5 5 5 4 2 2 2 4 5 5 4 5 8 7 8 9 11 9 11 11 9 8 7 8 8 8 7 7 6 6
9 8 5 6 6 6 7 7 7 7 7 8 8 9 9 8 8 8 9 12 12 10 11 12 11 10 10 10 9 7 7 7 7 2 5 6 6 6 7 6 6 6 5 6 7 5 4 4 3 3 3 3 2 2 4 2 1 1 6 8 3 0 7 9 9 8 8 8 8 8 8 7 8 7
6 7 6 6 7 7 7 8 8 9 9 9 9 8 8 9 8 9 10 11 10 9 10 10 10 10 11 11 11 9 9 9 8 9 7 5 5 4 4 5 4 3 6 6 6 6 6 5 5 5 5 4 3 2 2 1 3 4 2 3 4 6 8 8 8 9 10 8 7 7 7 7 6 7
3 7 7 6 7 7 7 8 8 9 9 9 8 9 9 9 11 11 10 11 8 9 10 9 9 10 10 10 10 10 9 10 10 10 9 8 7 6 5 6 6 5 4 4 3 3 4 6 6 5 4 4 5 5 9 6 3 5 3 3 4 4 5 4 6 8 8 6 6 6 7 6 7 7
7 7 7 7 7 8 8 8 9 9 9 9 10 9 10 10 10 10 11 11 9 11 11 10 9 9 9 9 9 9 10 9 9 9 9 9 9 8 9 7 6 5 4 6 6 6 5 3 5 6 6 8 6 5 4 9 7 4 4 4 4 5 5 6 5 5 6 5 4 5 5 6 6 7
7 7 8 8 8 8 8 9 9 9 9 9 9 9 9 8 9 9 9 9 10 10 10 9 9 8 9 9 9 9 9 10 9 8 8 7 7 6 8 7 8 7 7 6 6 8 7 7 6 1 2 3 8 8 5 2 9 10 1 4 5 5 5 6 5 5 4 4 4 4 4 4 6 6
8 8 8 8 8 8 8 8 9 9 9 9 9 8 9 8 8 8 8 9 10 9 10 9 9 9 9 10 9 8 8 8 8 8 7 7 8 8 7 7 7 7 6 7 8 8 6 7 7 7 4 5 4 6 4 3 1 6 10 2 6 6 5 5 5 5 4 3 4 1 3 3 5 5
8 8 8 8 8 8 8 9 9 9 9 9 9 9 9 9 9 9 10 9 8 8 8 9 8 9 9 9 8 7 8 8 8 8 8 8 7 7 7 7 6 5 5 7 6 6 6 7 7 6 6 6 6 4 3 3 3 2 8 14 5 4 3 3 3 2 3 4 2 3 1 6 7 7
8 8 9 8 8 9 8 9 9 8 9 9 9 9 9 10 10 10 10 10 9 9 8 8 8 8 9 9 8 7 7 8 7 7 7 6 6 6 6 5 5 4 5 6 6 6 7 6 6 5 5 5 3 3 3 5 3 3 5 10 13 7 4 1 2 3 3 4 5 4 4 4 5 3
8 9 9 9 8 9 9 9 9 9 9 10 10 10 9 9 10 10 9 10 10 10 9 9 9 9 8 8 8 8 8 6 6 6 6 6 6 5 4 4 4 4 4 4 3 4 6 4 4 6 5 2 2 2 2 4 5 4 6 5 9 10 9 7 2 2 3 2 0 4 4 5 5 5
8 7 7 8 8 8 9 9 9 9 9 9 9 10 10 9 9 12 10 12 10 10 9 10 9 9 10 10 9 8 7 7 7 6 5 5 4 4 3 3 3 3 3 3 3 4 3 4 3 4 3 4 3 5 5 4 3 3 3 3 4 6 9 10 10 10 8 4 1 2 4 4 4 5
7 6 6 7 7 7 8 8 8 8 8 9 9 10 10 10 10 11 10 11 11 11 10 10 10 9 9 9 8 8 8 8 8 7 6 5 5 3 3 2 1 1 2 2 2 2 2 2 2 1 2 2 3 2 3 2 2 1 2 2 2 2 5 8 12 12 12 12 8 5 3 3 2 3
6 6 5 5 6 6 7 7 8 7 8 8 8 9 9 10 10 10 11 10 11 11 11 10 10 11 11 10 9 9 8 9 8 8 8 5 5 5 3 2 1 1 0 2 2 1 1 1 0 1 1 0 1 1 1 2 1 2 2 2 0 1 4 3 4 5 7 11 11 7 7 7 6 5
6 6 6 6 6 6 7 7 7 7 8 8 8 8 9 9 9 9 9 10 10 11 11 11 10 10 10 10 10 11 10 10 9 9 9 9 7 3 3 3 1 1 1 1 1 1 1 0 1 1 2 3 2 2 2 2 2 3 2 2 3 2 2 2 3 4 3 2 6 8 7 8 8 8
Wind_Direction
272 268 262 253 250 260 255 245 234 240 236 232 237 242 244 240 239 247 246 244 248 242 247 258 236 222 221 220 224 225 229 232 233 234 232 234 236 215 203 212 215 218 219 222 222 223 225 227 228 228 229 230 232 234 236 238 240 243 244 244 245 246 245 245 246 245 242 238 236 237 237 238 238 239
270 263 268 266 263 261 262 254 237 232 236 235 238 236 233 236 237 238 247 251 237 239 223 235 253 227 218 219 226 228 229 229 229 235 238 234 231 224 200 207 212 214 219 222 223 223 224 225 226 227 228 229 230 232 234 234 236 240 241 243 244 243 243 243 241 242 242 241 240 238 238 239 238 238
282 272 267 264 261 259 257 259 251 243 220 228 230 233 238 236 235 242 241 251 244 232 235 226 249 254 219 215 222 223 228 225 230 235 240 233 233 225 198 203 207 213 215 220 222 223 223 223 224 226 226 226 227 229 231 232 234 235 238 241 242 241 242 241 240 239 239 239 239 238 237 238 239 239
292 286 278 274 272 264 253 255 255 251 235 216 231 228 232 242 231 230 234 240 249 223 242 256 254 248 243 223 223 229 233 219 197 227 237 232 225 213 226 191 207 208 215 216 220 221 221 221 222 223 224 224 225 227 228 231 232 234 236 238 239 240 240 240 239 238 237 238 238 239 238 239 240 240
294 290 284 279 274 272 267 259 258 257 241 222 225 230 238 251 247 231 229 235 245 256 250 248 242 254 250 240 229 229 232 235 221 216 227 227 224 219 220 212 192 207 210 214 215 217 217 218 219 220 221 222 223 224 227 228 230 232 235 236 238 238 238 238 238 239 239 238 238 238 238 237 237 237
301 295 292 286 282 274 268 265 264 258 246 227 227 231 232 234 237 235 226 227 234 246 238 240 243 242 238 243 232 233 230 235 234 223 217 220 228 219 209 217 207 196 207 208 209 212 213 214 215 217 220 221 222 224 226 228 229 232 233 235 237 237 236 235 234 235 236 237 236 236 236 235 235 235
302 296 292 290 288 282 270 262 259 258 254 235 226 226 227 234 235 235 225 225 229 231 235 229 238 238 236 235 234 231 233 234 233 227 221 215 220 207 205 205 226 181 202 200 206 208 210 212 214 216 218 219 221 223 225 226 228 229 230 232 233 233 233 232 232 233 234 235 235 235 234 235 234 234
306 301 298 292 289 288 280 271 259 252 251 241 227 226 230 232 238 238 221 221 233 234 240 232 235 237 239 233 233 236 234 233 233 230 224 214 211 210 206 203 226 179 198 197 200 205 209 212 215 216 217 218 219 221 221 223 224 225 227 228 229 230 231 231 231 231 233 234 235 236 236 236 236 234
305 301 298 296 292 289 286 277 267 260 257 250 236 223 226 235 236 237 226 224 226 234 238 241 236 237 240 240 234 228 230 228 230 228 223 216 211 206 211 213 219 199 194 202 197 200 206 211 215 216 217 218 219 219 220 221 222 223 225 226 227 228 229 230 231 232 233 234 236 238 241 242 241 238
308 306 306 303 300 297 292 289 273 263 257 255 244 225 219 231 238 235 229 218 223 227 236 240 242 235 234 230 228 223 222 229 228 226 222 221 214 207 214 219 216 206 183 201 200 202 208 211 213 215 217 219 218 219 219 221 223 225 226 226 227 228 229 230 232 234 235 235 235 237 238 240 240 239
309 312 314 312 309 306 309 308 294 270 258 254 252 239 230 225 234 235 233 217 216 221 228 234 236 238 233 229 229 219 219 225 229 229 219 230 221 210 211 215 220 212 212 217 199 199 202 203 205 211 217 216 218 217 219 223 224 225 225 225 226 227 228 229 231 232 233 233 233 234 235 236 237 236
315 317 319 317 314 311 312 311 307 291 266 254 243 247 237 233 224 233 241 227 219 216 218 228 228 229 233 233 228 225 212 216 219 224 227 226 216 206 211 222 203 208 237 225 217 203 194 191 201 202 209 215 214 215 219 222 224 223 224 223 223 224 224 226 227 228 229 231 231 231 232 233 235 235
323 323 323 323 320 314 304 301 312 316 304 292 287 265 244 235 225 232 237 243 221 219 217 222 219 229 231 228 223 217 215 213 218 216 219 232 231 213 218 212 195 198 226 227 221 212 208 210 204 200 206 206 206 213 213 220 215 221 221 221 221 222 221 223 225 227 229 231 231 230 229 229 229 231
328 325 326 322 319 311 311 323 325 324 325 308 287 280 273 259 250 242 236 238 229 220 222 225 221 218 224 227 225 223 217 216 216 214 212 222 223 215 216 219 210 206 220 226 218 215 195 203 205 209 213 209 184 213 196 218 220 207 211 215 219 219 221 220 221 223 226 227 228 226 225 225 225 226
331 330 325 319 317 316 324 327 317 318 331 332 313 289 272 263 255 248 229 228 223 220 225 227 227 231 228 225 224 220 219 216 218 216 213 215 210 208 207 221 228 219 216 220 212 211 207 199 208 210 214 211 200 205 218 188 203 204 197 208 213 217 218 218 218 220 222 223 223 222 220 219 219 220
333 325 320 317 315 314 323 321 328 332 328 319 308 300 286 271 257 244 249 248 231 222 225 224 231 231 224 217 216 218 220 218 217 216 213 201 205 204 213 223 215 204 195 203 210 213 200 194 208 212 209 210 206 211 181 163 184 189 189 199 210 214 215 213 213 214 214 215 218 219 218 218 218 217
326 320 317 315 312 315 317 322 330 335 330 323 318 302 286 264 254 251 241 238 248 245 232 229 228 228 229 224 218 222 222 211 217 215 216 205 200 209 213 220 225 228 208 203 211 209 214 207 200 212 208 207 209 196 156 165 170 184 193 205 211 212 208 204 204 208 210 210 212 215 215 215 216 218
314 306 306 309 311 311 321 319 327 332 330 326 321 318 309 292 264 237 235 237 237 238 240 231 226 228 233 232 226 216 211 213 212 210 214 202 200 198 220 223 226 213 191 210 202 205 199 203 203 207 205 202 206 223 162 169 176 186 199 204 208 207 202 200 202 207 209 209 210 214 213 211 212 215
296 298 289 292 299 303 311 317 319 325 330 325 318 313 311 298 279 264 243 230 227 225 231 237 230 226 229 232 231 216 206 229 219 206 214 204 213 207 213 221 211 207 188 196 198 211 204 191 211 216 208 198 200 216 150 170 179 196 195 200 202 202 201 198 201 206 209 208 210 211 212 210 209 211
293 288 281 282 288 301 306 307 311 320 325 323 317 316 316 310 288 267 253 238 227 227 226 228 230 228 231 237 231 218 208 218 219 204 201 192 227 239 239 234 219 220 208 207 203 208 208 199 209 211 210 205 211 206 209 171 181 181 190 193 198 196 192 195 200 203 204 205 207 207 205 205 204 205
297 296 294 294 294 296 306 304 309 316 324 323 319 318 318 312 300 273 256 235 223 219 224 229 231 234 236 233 227 219 225 282 245 207 205 198 199 214 225 233 229 218 207 204 209 205 210 202 202 210 199 201 208 205 217 181 173 168 179 187 190 185 184 193 197 194 193 197 199 197 192 190 189 182
289 289 282 284 294 303 301 304 312 316 324 320 313 318 319 318 310 282 255 243 214 212 214 221 226 229 233 238 233 204 191 219 236 218 211 200 194 210 216 217 221 225 213 201 197 204 210 192 199 204 203 202 210 216 211 185 141 148 155 176 174 175 181 192 190 182 185 185 185 178 172 167 156 164
291 292 290 289 292 297 299 304 309 315 325 317 313 314 317 319 315 300 270 242 228 205 208 220 221 229 230 234 231 218 196 204 211 222 219 212 202 209 219 225 232 233 227 205 189 206 200 195 195 192 193 211 201 206 200 184 163 172 180 166 164 159 176 189 189 182 179 180 172 166 162 165 174 175
299 297 300 295 300 308 304 307 309 315 320 313 308 310 321 317 316 311 293 260 232 214 207 216 219 222 221 224 224 222 211 202 208 220 224 222 218 220 215 210 220 232 232 204 183 203 206 201 196 192 209 213 209 185 182 176 176 189 190 177 178 140 153 142 146 153 168 177 171 165 170 176 200 173
295 291 290 298 302 307 307 310 311 314 314 311 308 320 320 310 307 306 265 264 245 231 210 205 214 216 216 220 222 219 213 217 216 219 220 221 221 222 223 219 212 226 227 196 180 198 211 200 206 190 211 213 218 169 181 174 180 195 197 190 184 154 175 182 180 165 132 147 166 177 183 191 215 236
295 293 293 299 301 302 306 314 312 313 313 312 311 320 317 320 324 325 303 242 242 227 226 214 204 207 214 216 220 220 214 208 219 217 216 217 221 220 224 219 196 220 232 176 191 204 207 211 210 197 195 205 214 189 175 189 178 187 195 204 201 173 180 182 189 180 175 172 165 183 196 212 232 271
292 290 290 287 293 313 311 311 309 310 311 313 324 322 323 328 328 342 0 343 251 243 229 215 206 209 212 213 214 217 216 210 209 215 214 213 214 222 227 243 197 215 337 135 187 216 214 220 210 206 198 198 208 195 190 191 185 174 188 207 204 186 187 192 190 187 175 172 157 118 144 181 229 309
288 291 295 306 314 307 304 305 302 304 309 317 324 330 332 337 341 357 3 7 356 292 230 215 216 204 210 211 208 209 206 210 204 202 208 216 226 221 227 237 246 1 184 206 191 213 210 223 205 209 202 190 192 203 198 197 175 180 190 205 203 193 189 193 187 180 172 167 156 175 183 184 195 210
290 301 298 297 297 297 298 300 291 301 310 324 325 335 341 344 1 2 7 6 5 32 21 356 309 248 224 214 208 196 200 208 193 183 194 206 207 221 223 238 225 181 216 182 216 227 227 217 207 192 195 197 201 207 207 208 178 178 190 190 197 190 184 188 185 172 176 177 177 173 185 185 182 192
277 279 280 283 287 294 298 301 315 330 326 315 330 343 346 357 357 7 4 6 14 25 24 17 12 358 9 337 229 196 195 193 184 185 194 196 196 194 203 192 187 198 189 188 213 225 232 258 246 190 181 191 212 212 203 226 188 182 182 191 185 166 185 190 182 169 179 180 174 173 178 186 183 182
305 308 299 296 291 277 283 285 297 313 323 329 343 349 351 350 356 4 10 9 16 15 22 20 9 357 8 22 23 6 170 192 196 192 190 196 193 173 187 189 163 194 189 183 214 191 178 193 224 199 185 194 198 198 213 219 246 196 186 189 179 182 180 184 181 175 182 174 166 166 162 165 167 189
312 301 283 261 270 316 333 328 329 343 342 339 341 351 352 349 353 0 3 15 16 17 20 25 10 15 21 27 11 17 26 36 89 162 169 182 166 176 168 176 166 142 149 188 145 156 170 156 147 52 198 191 193 191 167 192 229 201 182 191 193 188 163 174 172 170 166 165 166 172 161 159 160 177
297 288 314 6 346 355 356 348 346 344 351 354 346 354 352 352 354 353 6 16 20 15 22 22 14 11 24 26 22 11 32 15 18 63 142 146 141 153 174 173 165 156 148 172 164 156 168 146 133 157 137 114 46 115 145 136 268 110 224 182 115 314 153 166 164 156 161 172 173 170 177 183 178 170
285 308 0 9 7 352 358 357 351 350 353 357 348 346 348 357 358 356 5 13 15 16 20 18 12 14 21 26 24 23 35 38 32 32 43 69 80 96 83 79 68 104 144 149 151 155 161 165 148 152 152 94 61 36 358 158 131 92 49 353 147 207 158 169 152 160 168 179 175 171 171 177 179 184
312 356 8 14 12 2 4 5 1 355 358 360 349 349 352 2 358 354 1 4 4 17 17 14 15 15 23 25 25 27 29 41 38 42 43 49 49 51 47 60 61 40 28 47 51 70 153 161 144 143 157 147 113 54 41 26 146 134 187 183 153 167 81 98 135 160 173 172 187 182 178 173 177 183
23 11 11 17 12 8 7 9 6 1 5 5 4 1 359 359 1 357 353 346 8 19 16 11 11 15 22 27 26 29 29 38 42 41 41 43 48 51 55 50 46 39 42 51 52 41 46 81 152 165 179 171 151 154 105 24 38 141 175 175 145 123 113 115 132 159 179 183 192 204 194 185 170 176
31 22 19 20 16 14 11 6 5 6 4 6 8 10 3 357 352 353 345 352 19 22 15 11 13 10 19 21 27 27 29 32 36 34 45 48 52 46 57 58 53 47 45 37 38 43 41 41 19 131 137 277 158 131 88 60 34 29 215 175 144 159 142 143 155 171 185 196 194 212 218 187 150 171
39 31 25 24 18 17 15 11 8 5 3 6 8 5 6 359 350 344 349 15 19 21 13 8 15 13 17 17 21 26 31 32 29 31 33 39 47 51 49 54 51 44 44 45 42 45 33 35 33 20 22 83 49 71 94 46 34 30 14 70 150 147 152 143 143 166 181 216 204 265 247 140 170 173
34 29 24 22 19 16 12 11 10 6 4 4 4 6 4 2 358 0 6 9 13 17 13 18 16 12 12 11 12 22 30 27 29 26 28 32 32 38 48 50 53 40 47 52 44 49 45 45 42 33 30 47 59 65 73 102 70 26 35 30 56 112 93 99 105 104 170 202 170 184 196 60 54 61
33 29 20 17 17 10 8 6 5 3 2 359 0 3 8 7 5 6 9 4 9 15 22 20 14 18 16 13 4 17 29 31 33 34 30 30 28 32 34 35 40 23 39 40 43 41 49 45 34 40 44 46 38 17 49 76 105 35 46 53 43 54 78 115 105 149 252 222 164 141 153 148 160 164
31 30 26 19 15 11 11 8 2 2 1 359 1 0 3 5 9 8 8 3 6 15 20 21 18 20 23 17 0 15 20 20 30 31 32 37 41 42 34 25 34 25 44 39 37 41 48 38 50 51 70 64 18 306 4 46 41 20 22 26 60 56 46 47 83 170 109 352 266 187 182 153 144 159
30 33 33 25 19 17 16 13 8 6 5 3 4 359 356 2 14 0 3 6 9 13 18 18 18 21 25 23 21 13 15 4 16 29 29 34 42 47 35 26 39 10 16 42 19 42 38 30 39 25 29 32 22 44 52 49 70 49 32 6 30 61 66 62 49 55 72 101 255 177 143 137 164 148
31 32 28 19 20 16 15 13 12 10 7 6 3 1 3 5 8 10 10 9 7 12 12 11 12 13 15 16 18 20 18 10 2 4 21 21 19 25 53 46 50 27 11 28 50 42 57 35 29 37 23 28 48 44 86 87 98 96 63 43 16 45 69 59 56 58 59 54 44 39 7 20 356 134
28 24 27 24 20 16 13 13 10 8 5 4 360 2 12 8 8 10 11 9 8 7 6 9 9 12 9 9 10 14 19 16 15 6 348 13 26 18 360 50 76 166 75 14 8 56 102 79 357 9 339 19 131 59 103 149 122 125 140 108 358 41 63 67 77 60 46 36 30 53 64 57 64 83
21 21 24 27 24 22 15 9 8 10 10 7 8 7 9 10 8 5 9 10 7 2 5 10 8 8 7 8 13 16 8 4 10 19 5 1 358 22 22 9 54 142 160 113 7 14 25 243 104 23 315 307 286 227 160 157 140 133 124 133 122 113 89 89 65 62 54 66 18 25 39 42 51 74